GFSGL_sfc_dewp_000.txt.gz
Dewpoint
54 54 58 58 57 56 57 57 56 56 56 57 58 59 59 59 60 61 61 61 61 61 61 62 61 62 62 62 62 62 61 61 59 60 62 63 62 62 62 62 62 61 59
54 54 57 58 58 57 57 57 57 56 57 57 59 59 59 59 60 60 60 61 61 61 61 61 61 61 61 61 62 61 61 62 60 58 60 61 61 61 60 60 60 57 58
52 52 57 57 57 57 56 57 57 57 57 58 59 59 59 60 59 59 59 60 61 61 61 61 61 61 61 61 61 61 61 61 61 60 59 60 60 60 59 59 57 57 55
50 54 56 56 57 56 57 57 57 58 58 59 60 60 60 60 59 59 59 60 61 61 61 61 61 61 61 61 61 60 61 61 60 60 59 58 58 58 58 57 57 57 54
49 55 55 55 56 57 57 57 58 58 59 59 60 60 60 60 59 59 59 59 61 61 61 61 61 60 59 60 61 61 61 60 60 59 58 57 56 57 57 56 56 55 55
49 54 55 55 56 56 57 57 57 57 58 59 60 60 60 61 50 53 58 59 61 61 60 60 60 58 56 55 55 56 59 60 58 58 57 57 56 57 54 55 54 54 51
49 54 54 54 55 55 55 56 56 56 57 58 58 59 60 59 47 50 53 61 61 61 60 61 61 60 59 59 54 54 54 54 55 59 58 57 56 56 55 53 54 53 53
47 52 53 53 54 54 55 55 54 54 56 56 56 58 59 56 47 48 52 60 61 61 61 61 61 61 59 59 60 59 59 59 59 57 59 58 59 57 57 56 56 56 54
46 50 50 51 54 53 54 53 53 53 53 54 54 58 58 57 46 46 57 61 60 61 61 60 60 60 48 51 59 57 52 51 46 49 48 47 47 48 52 57 57 57 56
46 48 48 52 53 53 53 53 53 53 53 52 53 56 54 57 45 47 56 59 59 59 59 59 53 56 46 48 55 52 51 50 50 47 47 48 50 50 49 58 57 55 49
47 48 47 52 53 53 53 53 52 51 52 51 51 51 54 55 53 45 50 59 57 57 57 56 57 49 45 43 48 52 51 48 44 46 46 48 50 51 51 54 55 51 48
47 47 47 50 52 52 54 53 52 51 50 50 49 48 47 51 49 45 46 51 52 56 56 55 53 44 43 42 46 44 41 44 49 50 50 51 51 50 49 49 51 50 50
48 48 47 47 54 53 54 53 51 51 50 49 48 48 48 45 46 45 44 44 46 54 55 51 43 41 41 43 42 41 40 50 52 52 52 52 49 47 48 47 48 48 46
47 48 48 46 52 54 54 53 52 51 50 49 49 49 49 46 44 45 49 48 45 47 45 44 42 42 41 43 41 41 44 51 52 52 51 48 46 44 43 44 43 42 39
46 47 47 46 49 55 54 53 53 53 50 50 50 49 49 48 46 41 46 49 50 46 44 43 42 43 41 39 38 41 45 51 51 48 47 44 43 42 41 43 42 41 39
44 44 45 46 47 53 54 50 39 44 46 44 44 49 50 45 41 37 37 39 40 37 43 43 44 43 43 40 38 37 43 50 50 47 45 43 41 41 41 41 40 39 36
43 44 42 44 47 51 53 53 52 47 43 44 44 44 44 46 40 38 36 36 37 39 47 43 44 44 44 44 40 37 40 48 48 45 44 43 43 42 39 39 38 37 35
44 40 42 43 47 49 52 52 52 53 52 52 41 45 42 41 40 38 35 37 40 40 43 44 43 43 43 43 42 40 43 46 47 44 43 43 43 40 40 39 37 36 35
43 42 42 44 47 49 52 52 52 53 52 51 43 39 38 39 39 36 35 43 40 40 41 42 43 42 40 39 41 42 45 46 46 45 43 42 41 40 40 39 37 35 35
44 41 42 44 48 50 51 51 51 52 52 50 47 49 40 41 45 44 40 42 42 41 40 40 42 43 41 37 37 40 45 45 44 43 42 41 41 40 39 37 36 35 35
44 44 41 45 48 49 50 50 51 50 50 50 50 47 38 44 45 46 44 43 43 43 43 41 41 42 42 43 41 40 43 44 44 43 41 40 40 38 37 38 37 37 37
46 46 44 44 47 49 50 51 51 50 50 50 49 47 35 43 44 44 45 45 44 45 44 44 43 44 45 45 44 43 42 44 44 42 40 39 38 38 38 37 36 36 35
48 47 45 46 48 46 49 51 51 51 51 51 51 49 41 43 44 44 45 45 46 46 45 42 43 45 47 48 47 46 44 43 43 41 39 39 38 37 37 37 37 35 34
49 49 46 46 47 48 49 50 52 48 50 53 53 52 49 45 46 45 45 46 46 46 46 44 42 43 46 48 48 47 47 46 43 41 39 39 38 37 38 37 36 34 31
49 50 49 49 47 48 48 49 52 52 50 51 51 51 53 50 46 46 46 46 46 47 46 45 44 45 47 47 47 46 39 35 40 38 41 40 39 39 38 37 35 32 30
52 51 51 50 50 49 48 48 51 52 51 51 49 50 52 51 51 50 49 48 48 48 48 48 48 46 46 45 44 37 34 35 37 37 41 41 39 39 38 36 32 28 28

GFSGL_sfc_dewp_003.txt.gz
Dewpoint
58 60 61 61 60 60 60 59 59 59 59 58 58 59 60 61 63 63 62 61 61 62 63 62 62 64 63 63 65 63 63 61 59 61 62 63 62 62 62 63 63 62 62
57 57 59 62 60 60 60 60 59 59 58 58 59 59 59 61 62 62 60 60 60 61 62 62 62 63 64 64 66 64 65 62 60 59 61 61 61 62 62 62 61 59 60
55 56 61 61 61 61 60 60 60 59 59 59 60 59 60 61 62 62 61 61 61 61 62 62 62 62 63 64 64 64 64 62 62 60 60 61 61 61 61 61 59 60 56
54 55 59 60 60 60 60 60 59 60 59 61 61 60 60 61 60 61 61 61 62 62 62 62 62 62 63 63 63 63 64 62 62 60 59 59 59 60 59 57 56 56 55
53 55 58 59 59 60 60 59 60 60 60 60 61 60 61 60 59 60 60 60 62 62 62 62 63 62 60 60 64 62 63 62 60 59 58 57 57 57 57 58 56 56 57
54 55 56 57 57 59 60 60 60 60 61 60 60 59 60 59 50 54 58 60 62 62 62 62 62 60 57 55 55 56 60 61 59 58 58 57 58 58 59 57 56 53 50
52 55 55 56 56 57 58 59 59 60 61 61 61 60 61 61 48 49 53 60 62 62 63 62 61 61 61 61 54 54 54 53 56 61 61 60 60 60 59 59 56 53 53
50 54 53 53 54 57 57 58 59 60 61 61 61 62 61 60 46 48 52 61 62 62 63 62 62 62 61 61 61 60 60 60 61 62 64 64 63 62 61 58 58 59 57
48 53 53 53 54 56 57 59 58 60 60 60 60 61 61 60 46 47 56 60 60 61 61 62 62 61 49 52 60 59 60 58 50 47 48 50 50 51 54 53 51 53 53
47 50 52 52 55 56 58 58 58 60 59 56 59 61 57 60 45 46 56 61 61 61 61 60 53 57 45 50 61 60 58 57 58 58 58 54 54 53 50 59 55 54 54
47 48 52 53 56 57 59 58 58 58 57 57 58 60 61 59 56 45 50 60 60 60 59 59 59 45 44 47 50 58 56 56 54 59 57 57 57 57 56 58 60 56 53
48 48 51 54 54 55 59 58 57 58 57 57 56 56 58 60 53 45 46 52 54 59 58 59 58 46 44 44 49 40 40 48 54 53 53 53 54 54 55 56 57 56 55
50 50 52 52 54 56 57 57 54 57 54 53 53 53 54 56 59 47 45 46 49 58 58 53 44 42 42 46 43 40 41 50 53 53 50 48 49 51 54 53 53 52 49
51 52 52 52 54 56 54 54 52 52 51 49 50 52 52 53 56 58 57 54 47 52 48 49 46 47 44 49 48 47 50 50 51 50 51 51 50 49 48 45 43 42 38
52 51 52 50 53 55 55 54 52 55 51 50 49 49 52 51 51 52 54 57 57 52 50 50 51 52 52 52 51 50 49 51 52 53 53 49 47 46 45 45 43 42 40
51 50 48 46 48 51 53 53 41 44 44 42 45 48 49 45 41 40 42 43 41 41 50 50 49 50 49 49 48 48 48 49 52 52 51 49 46 45 44 44 43 43 41
52 52 47 45 46 47 52 52 52 49 45 43 44 43 44 45 39 37 38 39 38 41 51 50 49 48 46 46 47 46 46 49 53 50 50 49 47 45 43 43 42 40 38
53 44 47 45 44 44 48 49 49 51 53 54 45 47 43 42 39 37 36 40 45 44 50 50 50 50 50 49 48 47 46 47 51 50 50 49 48 45 43 42 40 39 36
50 45 46 45 44 43 45 46 45 47 50 51 53 44 44 40 38 36 36 47 46 45 46 46 47 47 49 49 50 50 48 47 48 50 49 48 48 46 44 42 39 36 38
49 43 44 45 44 45 44 46 46 46 47 48 50 51 50 47 51 50 46 48 50 48 46 45 44 44 45 46 46 47 48 48 48 48 48 48 47 45 43 41 39 38 38
45 44 42 43 44 44 44 45 46 47 47 47 48 47 43 50 52 52 50 49 50 50 49 48 46 44 42 43 44 44 44 46 47 47 47 47 46 43 42 40 39 40 39
46 45 43 43 44 44 47 46 46 46 46 46 47 46 37 48 49 49 49 49 49 50 49 50 48 47 46 44 43 42 42 43 45 46 46 45 44 42 41 40 39 41 40
46 45 44 45 46 45 48 47 47 47 46 47 46 45 45 47 48 48 49 49 50 50 49 50 50 48 48 48 48 46 43 42 45 46 46 44 43 41 40 42 41 40 39
46 47 46 46 45 46 47 49 49 45 47 47 50 49 49 46 48 49 50 49 49 49 48 48 48 47 48 49 49 49 48 46 46 46 45 43 42 41 43 42 41 40 37
45 49 48 50 47 48 49 48 49 52 49 50 50 51 51 51 48 49 50 50 50 50 50 50 50 49 49 48 49 49 45 37 45 41 44 44 41 43 43 43 40 38 34
48 51 52 49 49 48 49 50 50 52 51 51 50 51 52 53 53 52 51 50 50 49 50 50 50 50 49 48 48 43 36 36 41 38 44 44 42 42 43 41 38 35 32

GFSGL_sfc_dewp_006.txt.gz
Dewpoint
58 59 60 60 60 60 60 59 59 60 59 57 56 58 58 59 62 64 62 60 60 62 63 62 62 64 66 62 65 66 65 63 59 60 61 62 62 62 62 62 63 62 61
56 58 59 60 61 62 60 60 59 58 58 56 56 56 56 58 61 61 61 60 60 61 61 62 62 61 64 66 64 64 63 62 60 59 60 61 61 61 62 62 62 61 62
55 56 59 60 60 61 61 61 59 58 57 56 57 56 57 59 60 62 62 61 61 62 62 62 63 63 64 65 65 64 62 62 61 59 59 61 61 62 61 61 61 61 57
53 55 58 59 60 60 60 60 59 58 57 58 58 58 58 58 59 60 60 62 61 62 62 63 63 62 63 64 65 64 64 62 61 60 59 59 60 61 59 57 55 55 53
52 55 57 59 60 59 59 59 59 59 59 58 58 58 59 59 58 60 60 62 62 62 63 63 63 62 59 62 66 64 64 62 61 59 58 58 58 58 56 55 51 52 55
52 53 55 56 57 59 60 59 59 59 58 58 58 58 59 55 51 55 58 60 62 62 62 62 63 60 57 55 56 56 62 62 60 58 57 57 57 57 58 55 55 53 52
51 52 53 55 56 58 58 58 59 60 60 59 59 59 60 60 49 49 53 60 63 63 63 63 62 61 60 60 54 54 54 53 57 60 57 57 58 60 60 59 57 53 51
49 51 52 53 55 57 58 58 60 61 62 62 62 61 61 58 48 48 52 62 63 63 63 61 63 62 62 61 61 60 60 60 62 62 60 60 64 63 63 60 59 60 57
47 50 51 52 54 55 56 60 61 61 62 61 62 62 61 60 47 48 55 60 61 62 61 62 62 62 50 51 60 60 60 58 50 51 54 53 52 52 55 54 56 53 52
45 49 51 52 53 55 58 60 62 61 60 57 60 62 57 61 46 47 55 59 62 62 62 61 50 58 47 51 62 60 60 59 58 58 59 56 58 56 50 62 54 51 53
43 48 51 54 55 57 60 60 61 59 58 59 60 62 61 60 58 46 49 63 63 58 58 58 58 45 46 47 52 62 58 59 57 58 57 59 61 59 56 58 59 56 54
43 46 50 54 53 55 60 59 58 59 59 60 61 60 60 61 54 47 46 53 55 60 59 58 56 43 44 45 47 43 47 54 57 55 53 53 54 54 55 59 62 60 58
45 47 51 53 54 56 58 59 55 57 55 56 56 56 58 59 59 46 46 48 51 58 58 52 44 44 44 47 40 40 45 56 55 55 54 55 55 56 60 60 59 56 55
47 48 50 52 54 56 54 54 52 51 49 50 52 54 55 57 58 59 58 58 49 55 50 54 52 50 45 51 49 46 49 52 54 52 49 49 52 54 52 51 48 47 44
48 48 49 49 54 55 54 53 51 54 48 46 48 51 54 55 56 54 55 57 58 54 56 56 56 56 55 55 54 51 50 51 50 50 50 50 49 49 48 48 46 45 42
49 47 46 44 48 51 53 54 42 46 45 45 44 45 48 44 46 46 47 46 43 44 54 54 54 53 52 52 51 51 50 49 50 51 52 50 48 48 48 48 46 47 45
53 52 44 42 43 44 48 53 53 51 46 43 44 44 44 44 41 43 42 41 40 43 51 51 50 50 50 50 49 48 48 49 52 50 50 50 49 48 46 47 46 47 45
53 43 47 42 41 40 44 46 47 49 51 53 45 46 43 40 38 38 39 43 50 48 49 47 46 46 45 45 45 45 46 47 50 50 50 51 50 47 46 46 46 46 42
48 43 45 44 41 40 41 43 43 44 45 46 48 47 45 40 38 37 39 50 50 50 49 47 46 45 46 45 44 42 44 45 48 51 50 51 50 48 46 46 46 40 38
48 42 42 41 41 41 40 41 41 42 44 45 45 49 53 50 52 50 47 49 49 46 46 46 46 46 46 46 47 46 46 48 48 50 50 50 50 49 46 46 45 40 38
47 46 42 41 40 40 39 40 40 40 41 42 44 45 43 52 51 52 51 50 51 49 49 47 44 43 42 44 46 46 46 46 48 48 48 49 49 49 49 48 44 41 38
47 46 45 41 40 39 40 39 40 40 41 41 42 42 40 50 46 47 49 49 47 48 48 49 47 45 43 41 41 44 44 45 46 48 48 47 48 49 47 46 43 40 38
45 45 46 44 42 40 42 40 39 40 40 41 40 40 47 47 47 44 47 49 50 48 46 46 47 46 44 44 43 42 42 41 43 46 47 47 46 47 46 45 42 40 40
45 46 45 45 43 42 43 44 42 38 39 38 40 40 43 48 48 47 45 48 49 49 48 46 46 46 46 46 46 47 47 46 44 41 46 46 46 45 45 44 42 42 42
44 47 47 47 46 45 45 45 45 45 43 42 41 42 43 45 48 47 47 47 49 49 50 49 47 48 49 50 49 49 46 37 47 42 46 48 47 48 44 44 44 44 42
46 47 48 48 48 47 47 47 48 48 47 47 47 46 46 47 48 48 49 49 49 49 50 50 50 49 49 49 50 45 37 36 47 37 47 48 46 45 44 45 42 40 39

GFSGL_sfc_dewp_009.txt.gz
Dewpoint
58 59 62 62 59 60 61 59 59 60 58 57 56 56 56 57 61 63 63 61 61 64 64 62 61 63 67 67 66 65 64 63 57 59 60 61 60 59 60 60 61 61 60
55 58 62 63 59 61 61 59 59 58 57 55 55 55 54 60 61 62 61 60 60 61 61 60 60 61 65 66 65 64 63 61 58 57 59 60 59 60 60 61 62 62 61
54 55 60 59 60 62 61 63 58 56 56 55 55 54 56 60 61 63 62 61 61 61 61 62 62 63 65 65 63 63 63 61 60 58 59 60 59 59 61 61 61 62 62
52 54 57 58 59 62 59 59 57 55 55 59 56 58 58 60 60 60 61 61 63 62 63 63 62 63 64 64 63 62 61 60 59 59 59 59 59 60 60 59 58 59 58
52 54 57 58 58 58 58 58 57 56 59 59 59 57 58 59 58 60 62 62 62 63 64 63 64 61 60 62 62 63 61 60 59 59 58 58 58 59 57 56 54 55 56
52 53 56 56 57 58 58 61 61 61 60 61 59 59 61 56 50 54 59 64 63 63 62 62 62 61 57 55 57 58 59 59 59 58 58 57 58 57 56 52 52 52 51
51 52 53 55 56 57 56 56 57 61 63 59 57 61 59 59 50 50 53 63 64 64 63 63 61 61 60 61 54 54 55 54 56 59 58 58 57 59 57 56 57 56 54
50 51 52 53 55 56 59 59 61 63 63 61 60 61 61 58 49 49 52 63 65 63 63 62 63 63 62 61 61 61 60 60 60 60 59 59 59 59 61 58 59 61 58
48 50 51 53 55 56 57 59 63 65 65 63 62 61 60 59 49 47 54 63 63 63 62 63 62 62 51 52 61 60 59 58 54 54 55 53 52 53 56 56 56 54 51
47 50 51 52 54 55 58 60 61 63 62 64 63 63 56 61 48 46 55 63 63 63 63 62 51 58 49 50 62 60 59 59 59 59 59 55 57 58 51 63 58 53 52
46 50 51 54 55 58 59 61 61 59 59 63 62 62 62 61 59 47 48 63 63 61 58 60 58 45 48 52 56 61 59 59 57 60 61 62 62 59 55 58 61 61 56
45 49 52 56 54 56 60 59 58 59 61 63 63 62 60 61 54 48 48 52 56 61 57 57 54 45 44 48 57 47 47 53 59 59 59 59 57 52 54 58 64 63 61
45 50 53 55 54 57 59 57 54 58 57 61 59 58 58 58 59 48 50 49 52 63 58 52 45 43 41 46 45 46 49 56 55 54 53 53 53 54 61 62 63 60 59
46 50 52 54 54 57 54 54 50 51 54 54 56 58 57 57 58 59 59 58 50 56 51 56 53 50 46 49 49 50 56 55 55 55 54 54 55 59 59 59 56 53 50
48 49 52 52 55 55 55 52 49 54 48 50 52 54 56 55 56 54 55 57 58 55 58 58 57 57 55 50 50 51 52 54 55 54 51 53 54 56 54 54 51 49 46
51 48 48 49 52 52 52 54 43 45 45 45 44 48 53 48 47 46 47 45 45 47 56 55 54 53 53 52 50 50 50 50 50 50 51 50 49 49 49 50 48 47 46
53 53 46 45 49 52 51 52 52 52 45 47 45 43 43 49 45 45 43 42 43 47 55 54 53 53 52 51 51 50 49 50 54 50 51 49 48 49 48 48 47 47 47
54 43 47 44 43 45 50 51 51 52 52 52 46 47 43 43 43 43 41 46 53 49 52 52 52 52 52 51 50 49 49 50 50 50 50 51 51 48 48 47 46 48 48
49 45 46 43 40 41 42 46 49 49 51 50 49 46 42 39 39 40 42 52 50 49 47 48 48 48 47 48 49 48 50 49 50 52 52 51 52 50 49 47 46 43 45
49 44 44 42 40 40 39 41 42 43 45 45 45 49 51 47 49 49 52 52 49 47 46 44 45 46 45 45 45 44 45 48 49 51 51 52 52 52 49 48 47 47 47
45 47 42 41 40 39 38 39 40 40 42 43 43 45 45 50 50 50 49 49 47 45 47 46 45 45 45 47 48 47 47 46 46 48 49 52 52 51 52 50 49 48 45
47 46 45 42 37 38 41 38 40 39 39 40 42 43 41 50 46 48 50 50 48 50 47 49 46 45 44 44 46 48 48 48 48 49 49 49 50 51 51 50 48 48 44
49 47 47 45 42 39 43 38 38 39 38 38 39 41 49 49 46 45 48 51 52 50 48 48 49 47 46 47 47 46 46 47 49 50 50 50 49 49 50 50 49 46 44
49 48 48 47 43 40 42 44 40 36 37 37 42 40 47 48 48 47 46 48 50 52 51 49 48 47 49 50 48 46 45 46 46 47 49 49 49 48 49 49 48 46 44
46 50 50 49 46 44 43 43 43 43 41 41 41 42 40 45 46 47 48 47 49 51 52 52 50 48 48 48 48 46 44 34 44 39 45 47 49 51 49 48 48 46 45
47 49 50 49 48 47 46 46 46 47 45 44 43 43 43 42 43 49 50 50 48 48 51 51 52 51 49 47 48 43 36 35 46 37 49 51 48 48 48 48 47 44 43

GFSGL_sfc_dewp_012.txt.gz
Dewpoint
62 64 64 63 62 63 63 62 63 63 62 61 59 60 61 60 62 63 63 63 62 63 63 62 62 62 63 63 62 62 62 58 56 58 59 60 59 59 60 61 61 61 60
60 62 63 64 62 64 64 61 63 62 61 60 59 57 60 61 63 62 62 61 61 61 62 62 61 63 62 63 63 61 60 59 57 56 57 58 58 59 60 60 61 62 60
59 61 63 63 62 64 63 63 62 61 60 60 57 60 61 62 63 63 62 61 62 62 63 62 61 61 62 63 61 60 59 58 58 57 57 58 59 60 60 60 59 61 61
58 59 62 61 62 64 62 61 62 59 59 58 60 60 61 62 63 61 62 63 61 62 62 62 62 61 62 62 61 60 59 59 59 57 57 57 58 59 60 58 58 60 60
55 59 61 62 62 62 59 61 59 61 60 60 58 60 62 61 59 63 63 62 62 61 62 62 61 62 60 59 60 60 59 59 58 57 57 57 58 58 57 58 57 57 57
55 57 58 59 59 61 61 61 62 62 61 60 61 60 61 57 51 56 61 63 62 62 61 62 62 59 57 55 56 56 58 59 58 58 58 57 57 57 57 53 54 52 53
54 55 55 57 57 59 60 60 61 61 62 61 61 62 61 59 49 49 55 64 63 63 61 61 61 60 60 59 53 54 54 53 56 58 58 57 55 54 52 52 51 52 52
53 53 54 54 56 60 61 61 63 64 63 61 62 62 61 56 49 48 51 64 64 63 62 62 62 62 61 60 60 59 59 59 59 60 59 58 59 54 54 53 57 57 56
50 52 53 56 58 58 60 63 64 64 64 63 63 63 61 59 50 47 56 64 63 62 62 63 62 61 51 52 59 58 58 58 53 53 53 53 52 52 54 57 56 54 53
50 51 53 56 58 59 62 64 65 65 63 64 63 63 57 60 48 47 53 64 63 62 62 59 52 57 50 52 59 58 57 58 58 58 58 56 55 56 51 59 57 53 53
50 51 54 58 60 62 64 65 65 62 63 64 62 63 62 61 56 47 48 63 63 62 60 58 54 48 47 50 54 59 57 57 55 57 58 60 61 61 61 60 61 57 53
50 51 56 60 57 60 64 65 63 63 63 63 63 62 62 62 54 48 48 53 55 60 59 58 51 46 48 49 56 47 48 54 58 58 57 58 59 58 58 59 63 62 62
52 56 58 58 60 62 62 63 60 63 62 62 61 59 59 59 59 49 49 52 52 61 59 51 42 43 44 49 47 47 49 59 60 59 57 57 59 56 57 62 61 60 60
54 58 59 59 60 61 59 58 57 59 60 59 58 58 58 59 59 60 59 56 52 54 51 53 50 50 50 52 51 51 58 59 58 58 58 58 57 56 61 61 58 57 53
55 57 58 57 60 60 59 56 55 60 56 58 59 59 58 58 58 56 57 60 59 56 57 58 59 55 56 57 58 57 58 59 55 55 55 55 56 58 60 60 57 54 50
54 55 54 54 56 56 57 55 43 45 44 42 43 55 57 52 47 47 48 48 47 47 57 57 58 56 53 54 55 55 56 56 57 57 57 57 57 58 58 57 54 52 49
54 54 52 52 54 55 55 55 56 51 44 43 43 46 49 49 45 45 44 44 45 48 58 57 56 56 55 53 52 54 53 54 56 54 53 55 54 54 51 53 52 50 50
55 47 52 50 53 52 54 55 54 54 53 55 48 48 46 44 44 43 43 47 54 52 57 56 56 55 56 55 54 52 54 54 55 55 56 54 54 52 52 51 50 50 50
53 50 50 50 49 50 53 53 53 54 53 52 51 48 43 41 41 41 43 57 56 56 55 55 55 55 55 55 55 54 54 53 53 53 56 55 54 53 52 50 50 45 46
53 46 47 50 46 48 46 49 51 53 54 52 51 52 49 48 53 55 54 56 52 51 50 52 52 54 53 53 54 54 53 53 53 53 53 56 55 53 51 51 50 49 49
47 49 46 47 47 43 44 44 46 48 51 52 52 51 44 50 50 52 53 54 53 50 50 49 46 47 49 50 50 50 49 51 52 53 53 53 54 53 54 53 52 50 50
47 47 48 46 45 44 43 43 44 45 45 46 48 48 40 50 50 51 50 51 52 52 51 52 49 48 46 47 51 50 49 47 48 49 50 51 53 53 54 53 52 51 48
50 48 48 48 46 43 46 43 43 44 43 44 45 47 47 50 50 50 52 52 52 51 50 50 50 50 49 49 49 51 51 50 50 51 50 49 49 51 52 52 52 51 46
53 50 48 49 46 45 45 45 43 39 42 41 44 47 50 51 52 51 50 52 53 53 52 51 50 49 51 52 52 49 47 50 52 52 52 51 51 49 50 51 51 50 45
55 54 51 51 48 47 45 45 43 44 42 42 43 43 50 51 52 51 50 50 50 52 53 52 51 50 50 51 52 50 46 36 47 43 51 52 52 53 51 49 51 48 43
55 54 53 52 52 49 47 46 46 45 44 42 42 44 44 50 49 50 50 50 48 48 52 53 53 52 52 50 50 45 38 35 39 36 47 50 50 50 50 51 49 46 42

GFSGL_sfc_dewp_015.txt.gz
Dewpoint
60 59 59 61 60 60 59 59 58 58 56 57 57 59 59 59 60 60 60 60 60 60 60 60 60 60 60 60 60 60 59 58 56 57 59 60 60 60 60 60 59 59 59
61 60 60 59 60 60 59 59 57 56 56 56 57 58 60 61 60 60 60 59 59 60 60 60 60 62 60 61 61 59 59 58 56 55 57 58 58 60 60 59 59 59 59
59 60 60 60 60 60 59 59 58 57 55 56 58 60 61 61 61 60 61 60 60 60 60 60 60 61 60 60 59 59 58 57 56 56 56 58 59 60 59 60 59 58 59
59 59 59 60 60 60 59 58 57 57 55 57 59 61 61 61 62 60 62 61 61 61 61 62 61 62 61 59 59 58 57 57 57 56 57 57 58 59 59 57 57 57 57
58 59 59 60 61 60 59 57 58 55 57 58 59 60 59 58 59 62 62 61 61 61 61 61 62 61 59 58 59 59 58 57 57 56 57 57 57 57 56 58 56 57 58
58 57 60 59 60 59 59 58 59 58 58 57 59 59 57 56 50 53 59 61 61 61 61 60 60 58 56 55 55 55 57 57 57 56 57 56 57 57 58 56 56 55 54
56 57 58 59 57 56 58 58 58 57 58 58 60 58 56 54 47 49 52 62 61 61 59 61 60 58 58 58 53 53 53 52 55 57 57 57 56 56 56 54 54 52 52
54 55 56 57 57 58 58 57 59 59 59 59 60 58 55 53 48 47 52 62 62 61 61 60 60 59 59 59 59 59 58 58 59 59 58 57 56 54 54 52 52 52 53
53 54 55 55 57 59 59 59 59 59 59 58 60 57 55 54 48 46 58 61 61 61 61 62 61 59 50 51 59 58 58 58 52 50 50 49 47 48 51 54 53 50 52
52 53 55 56 57 58 59 59 60 59 60 60 61 58 55 55 48 46 55 62 60 59 59 59 53 56 48 50 58 58 57 57 57 57 57 53 52 51 51 56 54 53 52
51 53 56 57 58 60 60 60 60 60 60 60 59 58 57 56 53 46 50 61 60 59 58 58 56 48 47 48 52 57 57 57 55 56 58 58 57 57 56 57 55 54 51
51 55 58 59 59 60 60 60 60 59 59 58 59 59 59 57 52 47 48 56 56 58 57 56 52 46 46 47 53 45 48 53 57 56 55 55 56 56 57 59 60 56 54
52 56 57 57 58 59 59 59 59 60 60 59 59 58 57 57 54 48 49 50 52 58 56 51 45 46 45 46 44 46 49 57 56 55 54 55 57 57 57 58 57 58 57
56 55 56 59 59 59 58 59 58 59 59 59 59 58 57 57 57 56 55 54 50 50 46 46 49 52 51 52 51 53 57 58 57 56 55 56 57 55 57 57 55 53 50
56 55 56 59 59 58 55 54 56 57 59 59 58 58 57 57 57 55 56 57 56 52 53 54 53 55 55 55 56 57 57 58 58 58 56 57 57 54 58 57 55 51 48
55 56 56 57 58 58 52 51 43 43 44 50 51 56 57 52 48 48 50 48 47 47 55 55 54 54 56 56 55 56 57 56 58 58 57 57 56 54 58 57 54 51 47
54 54 54 54 56 55 55 53 48 48 44 41 46 48 50 49 45 46 44 45 45 49 56 56 56 53 54 55 55 56 56 56 57 56 55 55 56 57 55 57 53 51 48
52 48 52 53 53 55 55 55 52 49 48 47 46 48 45 45 44 44 42 47 52 52 57 56 55 56 53 52 53 53 53 53 54 54 55 55 57 57 55 55 53 50 48
51 51 51 50 53 51 54 55 54 51 51 50 49 48 42 41 42 42 44 55 55 55 55 56 56 55 55 54 53 53 52 52 52 53 54 53 54 53 53 53 52 46 46
49 46 48 51 49 52 52 52 53 53 52 51 48 52 48 48 50 51 51 56 55 55 55 55 55 55 55 55 55 53 53 52 51 51 53 54 53 52 51 51 51 49 48
50 48 47 49 49 48 50 49 52 54 53 52 50 49 45 53 54 54 54 55 55 55 54 53 53 52 51 54 54 54 53 53 52 52 52 53 54 52 51 51 50 50 49
48 49 48 47 47 47 45 46 48 50 53 53 52 49 40 53 54 55 55 55 56 53 52 51 50 48 47 47 51 52 51 52 52 52 52 52 52 54 53 52 51 50 48
55 49 48 47 47 44 46 46 44 47 47 52 52 51 46 50 50 51 52 53 54 53 52 52 51 49 48 48 49 50 49 48 48 49 51 52 52 52 53 52 52 50 46
53 56 50 47 47 46 45 47 45 41 45 45 48 50 49 48 48 49 49 50 51 51 52 51 50 50 50 51 49 48 50 52 51 49 47 48 49 49 51 51 51 50 46
48 56 57 54 48 47 46 45 46 44 43 44 44 49 49 50 50 50 51 51 52 51 50 50 50 49 48 48 51 52 45 37 48 46 51 50 48 49 48 50 50 49 43
49 49 56 57 55 49 47 47 46 46 43 43 44 46 49 49 50 51 51 51 51 52 52 52 51 51 50 50 49 45 40 37 40 39 50 52 50 50 50 49 49 47 41

GFSGL_sfc_dewp_021.txt.gz
Dewpoint
59 59 58 58 58 58 58 57 56 56 56 57 57 57 58 58 59 58 58 58 58 57 58 59 58 58 57 57 57 56 56 55 55 57 59 62 60 59 59 60 61 60 59
59 58 58 58 58 57 57 56 57 57 57 57 57 56 57 58 59 58 59 60 58 58 58 58 58 59 57 57 56 56 56 56 56 56 58 58 57 57 58 58 59 59 58
59 58 58 58 57 57 56 56 56 55 55 55 55 58 59 59 59 60 60 59 58 58 58 58 59 58 58 59 59 58 57 57 57 57 56 57 56 56 56 57 56 56 58
58 58 58 58 58 57 57 56 55 56 55 55 59 60 60 60 61 62 61 60 58 58 59 60 60 60 59 59 58 58 57 57 57 56 55 55 56 56 55 54 54 56 56
58 58 58 59 59 57 57 56 55 56 54 59 60 58 58 58 57 60 60 59 58 58 60 60 60 60 59 57 57 57 57 57 56 55 55 55 55 55 54 55 54 55 55
58 58 58 59 58 57 57 56 56 55 57 60 58 57 56 56 49 49 58 60 61 60 59 59 59 57 55 54 54 54 55 56 56 56 55 54 54 55 55 55 54 53 51
58 59 59 59 58 58 57 56 56 56 58 59 56 56 54 55 46 50 52 60 60 60 60 59 58 57 56 55 52 52 52 51 54 55 55 54 55 55 55 54 54 53 53
57 58 59 58 57 57 57 55 56 59 59 57 55 54 54 54 45 50 53 59 60 60 59 59 58 58 57 57 57 57 57 57 58 58 57 56 55 56 54 54 53 53 52
57 57 58 56 55 56 56 56 56 56 56 55 54 53 55 56 45 50 57 60 60 59 59 60 59 58 48 50 57 56 56 55 51 50 49 49 47 49 52 54 53 51 50
56 56 57 56 56 56 56 56 56 56 56 57 55 55 53 56 45 47 56 60 59 59 58 57 51 54 46 48 57 56 55 55 55 55 53 50 51 49 49 53 52 50 49
56 56 56 56 56 56 56 56 57 57 57 57 55 55 56 55 53 47 49 59 60 58 58 57 54 45 46 47 51 56 55 54 52 54 53 53 53 53 52 53 53 51 48
54 55 56 56 57 57 57 57 57 57 56 55 54 54 56 55 48 46 46 50 54 59 58 57 52 44 45 45 52 45 46 50 53 53 53 52 53 52 52 52 52 51 50
55 56 56 57 57 58 57 57 56 56 56 55 55 56 55 55 55 45 44 45 49 57 57 52 43 42 43 45 44 45 49 55 53 52 52 51 52 53 54 53 52 52 51
55 56 57 58 57 58 58 58 57 56 56 56 55 55 54 54 55 55 53 51 48 52 49 50 49 49 47 47 49 52 56 55 54 53 52 52 53 54 54 54 53 52 51
56 56 57 57 57 57 56 56 57 57 56 57 56 56 55 54 55 52 53 55 55 52 53 55 56 56 55 55 55 55 55 55 54 53 52 53 53 53 54 53 52 50 51
55 56 56 57 57 56 54 51 43 44 47 49 49 53 56 51 44 44 45 44 43 46 55 56 56 56 56 56 56 54 54 53 54 54 53 53 54 54 54 53 52 51 50
55 56 56 55 56 55 52 53 53 47 43 44 45 47 50 49 42 42 43 42 43 48 54 55 56 56 56 56 56 56 55 56 55 55 54 53 54 54 51 54 53 51 50
55 50 57 57 56 55 52 50 50 49 49 53 44 47 44 43 41 42 40 44 50 50 54 54 54 55 56 56 55 55 55 54 55 55 55 54 54 54 53 53 54 53 51
54 56 57 57 57 55 53 51 49 48 49 54 50 46 41 39 39 39 40 53 53 53 53 54 55 55 56 56 56 56 55 55 56 55 56 56 56 55 55 55 55 48 49
55 49 53 57 56 55 55 52 49 47 47 52 53 54 48 48 51 50 50 53 54 53 54 55 55 54 55 56 56 56 55 53 54 55 56 56 56 56 55 55 55 55 53
53 53 49 55 55 55 55 55 53 49 48 48 51 52 43 54 54 55 54 54 56 55 55 55 55 56 55 55 55 55 55 55 55 55 55 55 55 55 56 56 56 56 55
52 51 52 53 53 54 54 55 55 53 50 49 48 48 39 51 56 55 55 56 56 57 57 56 56 56 55 56 55 54 53 53 53 53 53 53 54 54 55 55 55 55 54
50 53 50 51 51 48 51 53 54 54 54 52 51 48 46 51 55 55 55 55 56 56 57 57 56 56 56 56 56 56 55 54 54 53 53 52 52 53 53 53 53 53 52
52 51 51 54 50 49 50 50 51 48 53 54 53 52 48 50 52 55 55 55 55 56 56 56 56 56 56 55 55 55 55 56 56 55 55 54 53 51 52 52 52 52 52
52 53 53 52 53 55 53 49 49 49 49 52 53 54 52 50 51 53 54 55 55 55 55 56 56 55 55 55 55 54 49 41 50 48 54 54 53 53 53 52 52 52 51
49 51 53 53 53 54 55 55 53 49 48 47 48 52 54 53 51 51 52 53 54 54 55 55 55 55 55 54 54 49 41 39 42 38 49 50 51 51 52 52 51 51 50

GFSGL_sfc_dewp_024.txt.gz
Dewpoint
58 58 58 59 59 59 59 59 58 58 58 58 58 58 59 60 60 60 60 60 59 59 60 60 60 59 59 59 59 59 59 58 55 59 61 62 60 60 61 62 62 61 60
58 58 58 58 58 58 58 57 57 57 58 58 58 58 58 59 60 60 60 60 59 59 60 60 60 60 59 59 60 59 58 59 57 58 58 57 58 59 59 59 59 60 59
58 58 58 58 58 58 57 57 58 57 57 57 57 58 60 60 60 60 60 60 59 60 60 60 60 60 59 59 59 59 59 59 60 57 55 57 57 58 57 58 57 57 58
58 57 57 58 57 58 57 57 57 57 56 57 60 60 61 61 61 62 62 61 59 60 60 60 60 60 59 59 59 59 59 58 58 56 55 55 55 56 56 55 55 57 56
58 58 58 58 58 58 57 56 57 57 56 61 60 59 59 59 57 59 60 60 60 60 61 60 61 60 58 58 58 59 58 57 56 55 54 54 54 54 54 55 54 55 55
58 58 59 59 58 58 58 56 57 56 59 60 59 58 57 57 47 51 58 61 60 60 60 59 59 57 55 54 54 55 57 57 55 55 54 53 54 54 54 54 54 53 51
58 59 60 59 58 58 57 56 57 57 60 59 58 57 56 56 45 50 53 60 60 60 59 59 58 57 56 56 52 52 52 52 54 55 55 54 55 55 55 54 54 54 52
58 59 59 58 58 58 57 56 57 60 60 59 57 56 56 55 46 50 51 61 60 60 59 58 58 57 56 57 58 57 57 57 57 57 56 56 55 56 56 54 54 53 51
58 59 59 58 57 58 56 57 58 59 59 57 56 55 57 57 47 49 56 60 60 59 59 59 58 57 48 49 57 56 56 55 51 49 49 48 47 49 53 54 52 51 50
57 58 58 57 56 57 57 57 58 58 58 57 56 56 54 57 46 48 57 60 58 58 58 57 51 54 46 49 57 56 55 55 55 55 54 51 52 51 51 55 54 51 50
57 57 58 57 57 57 57 58 58 58 58 57 56 56 57 56 53 46 51 60 58 57 57 56 54 45 45 46 51 57 55 55 53 55 55 55 55 56 55 55 56 52 50
57 57 57 57 57 57 57 58 58 58 58 56 56 57 57 57 49 46 46 51 54 57 57 56 49 43 43 44 52 44 46 52 55 54 55 54 54 54 55 54 56 55 54
56 57 57 58 58 58 58 58 57 58 57 56 56 56 56 57 55 44 43 45 49 58 57 50 42 41 42 45 43 44 49 55 55 55 54 54 55 55 55 55 55 55 55
56 57 57 58 57 58 58 58 57 57 57 56 56 56 56 57 57 55 54 53 49 51 49 50 48 47 47 48 51 55 55 55 55 55 54 54 55 55 55 55 55 54 53
56 57 57 57 58 58 57 57 58 58 57 57 57 56 56 56 57 52 53 56 57 52 53 56 56 56 55 55 56 56 56 55 54 54 54 54 54 55 56 57 56 54 52
56 56 57 57 57 57 56 53 42 46 47 48 48 54 56 49 43 43 43 42 44 46 56 56 56 56 56 55 56 56 56 54 55 54 54 53 53 53 55 56 55 56 55
56 57 57 56 57 56 55 55 55 49 43 44 43 46 49 47 41 41 41 42 42 49 57 57 56 56 56 56 56 56 55 56 56 54 53 53 53 54 54 55 56 55 54
56 50 57 57 57 56 55 55 55 53 53 54 44 46 42 40 40 40 40 45 54 53 57 56 56 57 57 57 56 56 56 56 56 56 55 54 55 54 55 55 56 56 55
56 56 57 57 57 55 55 53 52 51 52 54 52 47 41 38 38 39 42 56 56 56 56 56 56 56 57 57 56 56 57 56 56 56 56 56 55 55 55 54 54 47 50
56 51 53 57 57 56 55 53 51 50 51 53 55 55 49 50 53 52 51 54 55 56 55 56 56 56 57 57 56 56 56 56 56 57 56 56 56 56 55 55 54 54 54
53 54 51 57 57 57 56 54 53 51 50 50 54 53 43 55 55 56 54 54 55 55 55 55 56 56 56 57 57 57 57 56 56 56 56 56 57 56 57 56 56 56 56
52 53 53 55 56 56 57 56 55 53 51 50 50 50 38 54 56 56 56 56 56 57 56 56 55 56 56 56 56 57 56 56 56 56 56 56 56 57 57 56 57 57 57
52 52 53 54 54 52 55 56 56 55 54 52 51 48 48 52 55 56 56 57 57 57 58 57 57 56 56 57 57 56 56 56 56 56 56 56 55 55 56 56 56 56 55
53 53 53 53 53 51 52 54 54 51 55 55 54 53 49 50 52 55 57 57 57 57 58 58 58 58 58 58 57 57 57 56 56 56 56 55 55 53 54 54 54 54 55
51 53 54 54 53 53 55 53 51 51 53 54 55 55 54 52 51 52 54 56 57 57 57 57 58 58 58 58 58 58 53 44 54 51 56 56 55 56 55 54 54 54 54
46 46 49 51 52 54 55 56 57 57 55 54 52 52 55 55 53 53 53 55 55 56 56 57 57 57 58 57 57 53 45 42 47 42 55 57 56 56 56 55 55 53 53

GFSGL_sfc_dewp_027.txt.gz
Dewpoint
63 63 64 63 63 64 64 63 63 63 63 61 61 61 61 62 63 65 65 63 62 63 62 62 62 63 59 59 60 59 58 62 57 60 62 63 63 65 64 64 64 63 61
62 62 63 63 63 63 63 62 62 61 61 60 60 59 59 60 62 62 61 61 61 61 61 61 61 61 62 62 60 62 59 61 57 58 59 59 60 62 61 61 61 61 61
60 61 62 62 62 63 62 62 61 60 60 60 59 58 60 61 61 62 61 61 61 62 61 62 61 62 62 61 62 61 61 59 60 58 57 58 59 59 58 59 59 59 59
58 59 61 61 61 61 61 61 60 60 59 59 60 60 61 62 62 62 62 62 61 62 62 62 62 62 62 61 61 61 62 60 59 58 56 56 57 58 57 56 56 58 57
57 58 60 61 61 60 60 60 60 59 59 61 61 61 61 61 57 61 62 62 61 62 63 62 63 62 59 60 60 61 61 58 57 56 55 55 55 55 55 56 55 56 57
58 58 59 59 59 60 60 60 60 59 60 61 60 59 60 58 47 50 58 62 61 61 61 61 62 59 57 54 55 55 58 59 57 55 55 54 54 55 56 55 54 53 52
57 59 59 59 59 59 58 58 59 61 62 61 61 59 59 61 46 48 53 62 61 60 61 60 59 59 58 58 52 52 52 52 55 57 55 55 54 55 55 55 55 55 54
57 58 59 57 57 58 58 58 61 62 62 61 61 59 61 58 48 48 52 62 61 60 60 60 60 59 59 59 59 58 57 57 58 57 57 57 56 57 55 55 56 54 54
58 58 57 56 57 57 57 60 62 62 61 61 60 59 61 60 48 48 56 61 60 59 59 59 58 57 48 50 58 57 56 55 51 49 49 48 47 48 53 53 52 52 51
58 57 56 56 57 58 59 61 62 63 61 59 59 60 56 60 46 48 57 61 60 59 59 58 50 54 46 49 58 57 54 54 55 55 54 52 52 51 51 57 55 52 51
58 58 57 58 58 59 61 61 62 62 61 61 60 61 61 59 57 46 51 60 59 58 57 56 53 45 45 47 52 57 54 55 53 55 55 56 57 57 56 57 57 54 51
57 57 58 59 56 58 61 61 61 62 62 61 60 60 60 59 49 46 48 52 54 57 57 56 51 44 44 46 52 45 46 52 56 55 55 55 55 55 56 57 58 55 56
58 58 59 59 58 59 60 61 59 61 60 59 58 58 58 59 55 44 44 47 50 57 57 49 43 42 43 45 44 45 48 55 55 55 55 55 55 56 58 58 58 57 57
58 59 59 59 59 59 59 59 58 59 59 58 57 57 58 59 57 58 56 54 49 51 49 52 48 49 48 51 52 53 56 56 55 55 55 56 56 56 55 55 54 54 50
58 59 59 58 59 60 59 58 59 61 58 58 58 57 58 58 58 54 56 58 57 53 54 57 57 56 55 56 57 56 56 57 56 56 56 55 55 54 54 55 53 52 50
58 57 57 57 58 58 58 57 42 46 45 46 49 53 57 48 44 44 43 44 44 46 56 57 57 56 56 56 57 56 56 54 56 56 56 55 54 53 52 54 53 51 49
58 58 57 56 57 58 57 57 57 51 41 42 43 45 47 47 42 41 41 42 43 49 56 56 55 56 56 56 56 56 55 56 57 55 54 53 52 51 51 54 54 54 54
58 50 57 56 56 57 57 56 56 56 57 58 45 46 40 41 40 40 42 47 56 55 58 57 57 57 57 57 56 56 56 57 56 55 54 52 52 52 53 53 53 54 54
56 55 56 57 57 55 56 54 55 55 54 57 56 48 42 38 38 40 44 58 57 56 57 57 57 57 57 57 57 57 57 57 56 56 55 53 51 50 50 50 51 47 49
56 50 52 57 57 57 56 54 52 53 53 54 57 57 51 50 55 54 57 58 58 57 57 57 57 57 57 56 57 57 57 57 57 57 56 55 55 54 53 53 53 53 54
54 55 50 56 56 56 56 55 54 52 51 52 54 56 46 57 57 57 56 57 57 57 57 57 57 57 57 57 57 57 57 57 57 57 56 56 56 55 56 55 54 54 54
53 54 55 54 56 56 57 57 56 55 53 52 52 53 38 56 57 57 57 57 57 57 57 57 57 57 56 57 57 57 57 57 57 57 57 57 57 56 56 55 55 55 54
53 53 53 54 55 52 57 56 56 56 55 55 53 52 52 55 56 57 57 58 58 58 57 57 57 56 56 57 57 57 56 55 57 57 57 57 56 55 55 55 54 54 54
54 53 53 54 53 53 55 56 56 50 55 55 56 55 53 52 54 55 56 57 58 58 59 58 58 57 57 57 57 56 56 56 56 55 57 55 55 54 55 54 53 54 55
53 54 54 55 55 56 57 57 56 53 53 53 54 54 55 55 54 54 54 55 56 57 58 58 58 59 59 59 58 57 53 43 54 50 56 57 55 55 53 53 53 54 55
47 49 49 49 50 50 51 51 51 53 53 54 54 56 55 53 54 55 55 55 54 54 55 56 57 58 58 58 58 53 44 41 48 42 55 56 56 55 55 55 54 52 54

GFSGL_sfc_dewp_030.txt.gz
Dewpoint
66 66 67 66 66 66 66 66 66 66 65 63 62 61 60 61 62 64 64 63 62 63 62 61 62 62 59 57 57 63 65 64 61 63 64 65 65 66 65 66 65 65 61
65 65 65 65 65 65 65 65 64 63 61 60 59 58 58 59 62 62 61 60 61 61 61 60 60 60 61 63 66 64 63 66 63 60 60 61 63 65 65 64 64 64 62
63 64 64 65 65 65 64 63 62 61 59 58 58 58 57 58 60 62 61 61 61 61 61 60 59 61 62 63 64 63 62 65 64 58 58 59 60 62 61 61 61 61 61
60 61 62 63 64 63 62 61 59 58 58 58 58 56 58 59 61 62 62 62 62 62 62 61 60 61 62 63 62 62 64 64 61 59 58 58 58 59 59 57 56 58 58
57 58 60 61 61 61 60 59 59 58 57 57 58 58 60 61 58 62 62 62 62 62 63 61 62 61 59 61 61 62 63 61 58 57 57 57 56 56 56 57 57 57 57
55 57 58 59 59 60 61 60 59 59 59 58 59 57 61 57 50 50 58 62 62 62 62 62 63 60 58 55 55 56 61 61 59 57 56 55 56 56 57 56 55 55 53
55 56 57 57 57 58 57 58 58 60 61 61 60 58 60 62 48 48 53 62 62 62 61 62 60 59 59 60 53 53 53 52 57 60 57 56 56 57 57 56 55 54 55
55 55 56 55 55 56 55 57 60 60 63 63 61 61 62 60 49 48 52 62 61 61 61 61 61 60 60 60 60 59 59 60 60 58 58 58 57 57 58 55 57 55 55
53 55 54 53 54 56 55 59 61 62 62 62 60 61 62 62 48 48 57 61 60 59 59 60 60 60 50 50 59 58 58 57 51 51 50 48 47 49 54 55 54 53 53
54 54 53 53 53 54 57 59 61 61 61 57 60 62 57 61 47 49 57 61 60 59 60 59 52 56 45 49 59 58 56 57 55 54 54 51 53 52 50 56 54 52 53
53 54 54 55 56 57 59 61 59 60 59 61 61 62 62 60 58 48 52 60 59 58 57 57 55 45 45 47 52 58 56 56 53 55 55 55 56 57 57 57 56 55 53
53 53 55 57 55 57 60 61 60 60 61 61 61 60 61 62 49 48 48 52 54 58 57 56 50 44 44 46 52 45 46 52 55 55 55 55 55 56 56 58 61 59 58
54 55 57 57 56 58 61 62 62 63 61 61 59 58 59 59 56 45 45 47 50 57 57 48 43 43 43 46 45 46 48 55 55 55 54 55 54 56 59 59 61 59 58
55 56 58 58 58 59 59 60 63 64 61 59 57 57 59 59 59 57 56 55 50 53 49 52 51 51 50 51 52 52 58 57 55 56 56 56 57 58 57 57 56 54 51
56 58 58 58 58 60 61 61 62 63 59 61 59 56 58 59 59 55 56 57 57 54 56 57 57 56 56 56 56 58 58 57 56 57 57 56 55 55 54 54 52 50 47
56 55 53 55 56 55 57 57 43 44 44 46 46 52 57 51 46 44 45 44 45 46 56 55 55 55 55 56 57 57 57 56 58 57 56 54 52 51 51 52 50 48 47
54 55 53 53 54 53 56 57 58 53 43 42 43 43 48 48 43 42 43 43 44 47 55 55 55 55 55 55 55 55 54 57 57 54 54 53 53 52 51 50 48 47 46
55 49 51 51 52 51 52 54 54 57 56 58 45 45 41 41 41 41 42 46 55 54 56 56 56 55 55 55 55 54 54 55 55 54 53 53 53 50 49 48 48 49 49
53 51 51 51 52 51 50 52 52 54 57 56 56 49 43 39 39 41 45 57 57 57 57 57 55 55 55 56 56 55 55 55 54 54 53 52 52 51 49 47 48 44 46
54 50 50 52 53 53 52 47 51 52 53 55 55 55 54 52 56 55 58 57 57 57 57 57 56 56 56 56 56 55 55 56 56 55 54 53 52 51 50 50 50 49 50
48 54 49 52 52 52 52 50 48 48 49 51 54 55 48 57 57 57 57 57 56 55 55 56 56 56 56 56 56 56 55 56 56 55 55 55 54 53 53 52 51 51 51
49 50 50 48 50 52 53 53 52 50 48 47 50 54 41 55 54 55 56 56 56 56 56 56 54 54 55 55 56 56 56 56 56 56 56 55 55 55 55 54 54 54 53
53 51 50 50 51 51 55 53 53 53 51 50 50 53 55 56 54 54 56 57 57 56 55 55 56 55 55 55 55 55 55 56 57 57 56 56 55 55 55 55 54 54 53
54 54 53 53 53 53 53 55 55 50 53 53 53 52 53 53 54 55 56 57 57 58 58 57 57 55 55 55 56 56 56 56 55 53 56 55 55 54 55 54 53 53 53
53 53 53 55 54 55 55 55 55 55 55 55 55 56 56 57 56 56 56 55 55 56 57 57 58 58 59 59 58 57 52 40 53 47 55 55 55 55 53 51 52 52 52
46 47 48 48 49 50 49 48 49 49 49 49 49 50 50 50 51 52 53 54 55 56 56 56 56 57 57 53 47 38 37 37 47 39 55 56 55 54 53 53 53 51 51

GFSGL_sfc_dewp_033.txt.gz
Dewpoint
67 69 69 68 68 68 67 67 67 68 65 64 63 63 62 62 62 63 63 61 61 64 65 62 62 64 59 58 59 64 63 63 61 61 65 67 66 67 66 66 63 64 62
66 67 67 67 67 67 66 65 64 64 63 62 60 59 58 58 61 61 61 60 61 62 63 62 60 60 62 65 64 65 64 66 62 61 63 63 65 66 65 65 64 63 63
64 65 65 66 66 67 64 64 63 62 60 58 57 56 56 57 59 62 61 61 62 61 63 62 59 62 63 65 61 65 66 66 65 60 59 61 63 63 62 62 62 61 60
61 62 64 65 65 63 63 62 61 59 57 57 57 55 55 56 59 60 61 61 63 61 64 64 59 61 62 63 64 64 65 65 63 59 59 59 59 61 60 58 57 59 58
58 60 61 62 62 61 60 60 59 58 57 56 56 59 58 60 58 62 62 62 62 63 64 61 62 62 60 62 64 66 65 64 59 58 58 57 57 58 57 58 57 56 57
56 56 57 57 57 59 59 61 59 57 60 60 61 59 61 58 50 52 60 62 61 62 62 62 63 61 59 54 55 57 63 62 59 57 58 56 57 57 58 57 56 55 54
54 54 55 56 58 60 60 60 57 62 64 63 62 58 62 61 49 51 55 63 63 63 63 63 60 60 60 60 54 53 54 54 57 61 58 57 57 58 57 56 56 55 54
53 53 54 55 57 58 59 56 63 64 63 62 61 62 63 59 49 50 53 63 62 62 62 63 62 61 60 60 60 60 60 61 61 60 60 59 59 59 58 57 56 56 56
53 54 55 55 56 55 55 59 63 61 63 62 62 62 62 61 49 51 58 61 60 60 61 61 62 60 51 51 60 60 59 58 51 50 49 48 47 50 54 57 55 53 53
55 53 52 52 56 56 57 62 62 60 60 58 62 63 58 61 48 49 57 61 59 59 60 59 49 57 47 50 60 58 57 56 56 56 56 54 54 52 51 57 55 53 53
55 52 55 55 55 59 62 64 62 59 60 63 62 62 63 61 58 49 51 60 59 58 57 58 58 45 46 49 53 59 56 57 54 56 56 56 57 57 57 58 56 55 53
52 53 57 59 54 57 60 60 59 64 62 62 62 60 62 61 50 48 49 53 54 58 57 57 51 44 45 47 52 45 47 52 56 55 55 54 56 57 56 56 56 58 58
54 57 57 58 58 58 61 61 60 60 57 59 62 59 59 59 56 45 46 48 50 57 57 50 43 42 43 47 44 45 49 55 55 54 54 54 55 56 58 60 60 61 61
54 58 58 58 59 60 58 63 64 65 63 62 62 61 59 59 58 58 56 55 50 53 49 53 51 51 49 51 51 53 56 56 55 55 54 55 56 57 60 60 59 57 53
55 57 57 53 60 60 63 61 64 62 60 63 63 62 58 59 58 55 55 57 57 54 55 57 57 56 55 55 55 57 57 56 56 56 56 56 56 57 56 57 55 52 50
54 54 51 52 53 57 57 58 43 44 42 42 44 54 57 51 47 47 45 45 47 47 56 57 56 55 55 56 57 58 58 56 58 58 57 56 56 55 55 55 53 50 48
58 55 50 51 55 55 54 55 56 54 43 41 42 44 50 47 44 43 42 44 44 47 57 55 54 54 56 58 59 58 57 58 59 56 56 54 55 53 51 50 48 46 46
56 46 50 51 50 56 59 56 55 55 55 57 45 47 42 42 42 42 42 47 55 54 57 55 54 54 55 58 56 57 56 57 56 56 55 54 53 50 49 48 48 48 48
50 48 49 51 52 50 57 58 57 56 55 55 55 49 43 39 40 41 44 56 55 56 55 55 57 57 58 59 57 56 56 57 56 55 54 53 52 51 50 49 48 43 45
51 48 50 50 49 48 51 56 57 58 55 54 55 57 54 54 56 56 57 57 57 56 56 55 56 56 58 57 56 57 58 58 53 53 52 52 51 50 48 47 45 45 48
48 49 48 49 46 47 45 46 49 51 54 55 54 55 49 57 57 57 57 58 57 56 57 56 56 55 54 55 57 56 56 57 55 53 52 52 52 51 51 50 49 48 48
47 46 47 46 46 48 48 47 46 44 46 50 54 54 43 56 55 56 56 57 57 56 55 57 57 56 56 55 55 54 54 54 54 54 54 53 53 53 53 52 52 52 52
48 46 45 45 48 48 50 48 48 47 45 46 53 54 55 55 56 52 53 53 54 55 55 57 55 55 53 53 54 54 55 55 55 55 55 55 54 54 54 54 53 53 53
56 56 54 53 55 49 48 51 54 49 56 53 54 52 52 52 51 56 58 58 57 54 54 54 53 52 53 54 54 53 52 52 54 53 56 55 54 53 54 53 52 53 54
50 51 52 53 53 53 53 53 52 52 52 53 52 53 53 53 53 54 55 56 57 56 55 51 49 50 48 46 45 43 37 35 45 40 55 56 55 56 53 52 53 53 53
44 46 47 46 47 47 47 47 46 46 46 46 46 46 46 47 47 48 49 50 51 52 52 51 49 46 46 43 39 35 34 34 38 35 47 57 56 55 54 54 53 51 52

GFSGL_sfc_dewp_036.txt.gz
Dewpoint
68 69 70 70 70 71 70 69 70 70 69 68 67 66 66 66 66 66 66 64 63 64 64 63 64 64 64 63 61 62 60 60 58 60 62 62 62 63 64 63 64 62 61
68 68 68 68 68 68 68 68 68 68 67 66 65 63 62 63 65 64 63 62 62 63 63 63 63 64 63 63 63 61 61 61 60 59 61 62 62 64 64 64 63 62 61
67 67 67 67 66 66 66 67 66 66 66 63 62 61 60 61 62 64 63 62 62 63 63 62 62 63 62 62 63 62 62 62 61 60 60 61 62 62 62 62 60 60 60
65 65 65 65 65 65 66 66 64 63 63 62 62 59 60 61 62 62 62 63 63 62 63 62 62 62 62 62 62 62 63 62 61 59 59 59 60 60 60 58 57 59 58
63 63 64 65 64 64 64 64 63 62 61 60 61 61 63 61 61 64 64 64 63 63 63 63 63 62 60 62 64 63 63 61 59 57 57 57 57 58 57 58 56 56 57
62 62 62 62 61 63 63 61 63 62 62 61 61 62 62 59 49 52 60 64 62 62 62 63 62 58 56 56 57 59 61 61 58 57 56 56 57 57 57 56 56 55 53
57 57 57 59 60 60 61 60 62 64 64 62 62 63 63 59 49 51 55 64 64 63 63 62 62 62 61 60 53 55 55 54 57 58 57 57 57 58 57 56 56 55 55
54 53 57 58 59 60 60 61 64 64 65 64 64 64 62 57 49 51 55 63 64 63 63 63 63 62 61 61 61 61 61 60 60 59 59 58 58 58 58 57 56 55 56
55 55 57 57 59 59 60 62 64 64 64 64 64 64 62 59 49 52 58 61 62 62 60 60 62 61 51 51 60 59 57 55 51 50 51 50 48 50 54 56 54 54 53
55 54 56 56 57 59 61 63 64 64 64 64 63 64 57 60 48 50 57 59 58 58 61 58 50 55 49 51 60 58 56 56 56 56 55 51 53 52 51 57 55 53 53
53 54 56 58 59 61 62 63 63 64 63 63 63 63 62 60 56 50 52 60 59 58 58 58 54 45 46 48 53 58 55 56 54 57 56 56 57 57 57 57 55 55 53
53 53 57 59 56 60 62 64 63 64 63 63 62 62 61 60 51 50 50 53 54 58 57 56 52 43 44 46 52 45 47 52 56 55 55 55 56 56 56 56 57 57 56
56 58 58 58 59 61 62 63 61 64 63 62 61 60 59 58 56 45 46 49 49 57 57 47 43 43 43 45 44 46 50 55 55 54 54 55 55 56 56 56 56 57 59
58 59 59 60 61 62 61 64 64 64 64 63 62 61 59 58 58 57 55 55 50 52 49 53 50 48 49 50 52 54 56 55 54 54 54 55 56 56 57 56 55 59 58
58 58 58 59 61 61 57 55 62 56 60 63 63 61 59 58 57 54 55 57 57 54 55 56 55 54 54 55 56 56 55 55 55 55 55 55 55 55 57 58 59 58 55
57 57 56 57 61 59 58 57 43 43 42 42 47 58 58 51 46 45 45 46 47 45 56 55 55 54 54 55 56 57 56 55 55 55 55 55 55 56 57 57 57 55 53
57 59 54 56 56 57 58 57 56 51 43 42 42 47 49 47 43 43 45 44 42 46 58 55 55 55 56 58 57 57 56 57 58 56 56 56 56 56 53 55 55 54 52
57 48 55 56 55 57 57 56 57 57 56 56 45 45 42 42 42 42 42 47 54 53 58 55 55 57 58 59 58 57 57 58 58 57 57 57 56 55 55 55 53 52 51
54 53 57 56 56 56 59 58 56 57 56 56 54 49 43 40 40 41 42 57 56 57 57 57 57 58 59 59 59 58 57 57 57 57 57 57 56 56 53 52 52 46 47
52 48 50 56 56 56 58 57 57 57 56 57 58 55 54 54 56 55 55 58 57 59 56 56 58 58 58 58 58 57 57 57 57 58 57 55 55 55 53 53 53 51 51
48 54 49 53 54 55 56 57 57 56 55 57 58 56 48 57 56 56 57 58 58 57 58 58 56 57 56 57 58 58 58 57 57 57 56 56 56 54 55 54 54 52 49
53 49 53 53 51 52 55 56 57 56 55 55 57 54 42 57 56 57 57 58 58 59 59 59 57 56 57 57 57 57 57 57 57 56 56 56 56 56 55 54 53 53 53
56 49 49 52 52 51 55 52 54 55 55 54 56 56 55 58 59 58 58 59 58 58 57 54 55 54 53 52 52 50 51 52 55 57 58 57 56 56 56 55 55 54 55
55 55 55 54 54 55 54 55 53 49 55 54 55 55 55 55 55 56 55 56 53 50 49 48 46 44 43 43 43 43 40 39 49 50 56 59 57 55 57 56 55 55 55
50 49 50 52 52 52 51 51 51 52 50 49 50 50 50 50 50 51 53 52 51 50 46 44 44 42 39 37 36 36 34 33 38 37 53 57 58 59 57 56 56 56 55
45 45 46 46 45 44 45 45 46 46 45 45 45 45 45 45 45 45 46 46 46 45 43 41 38 37 35 34 33 32 32 33 36 36 51 54 54 53 51 53 55 55 56

GFSGL_sfc_dewp_042.txt.gz
Dewpoint
62 63 65 66 66 66 66 66 66 65 65 65 65 66 66 65 64 63 63 62 61 60 60 60 59 60 59 59 57 56 56 55 53 55 57 60 60 61 61 62 62 61 60
64 65 66 68 66 65 65 66 66 65 65 66 66 66 65 64 63 62 61 61 60 60 60 60 60 62 60 58 57 56 55 56 55 54 57 60 60 60 61 60 61 61 61
67 67 67 67 67 66 67 67 66 66 66 66 65 64 64 63 62 61 60 60 60 60 60 60 59 61 60 58 56 56 55 58 58 58 59 61 60 60 59 59 59 59 60
67 67 67 67 67 67 68 67 66 66 65 64 63 63 62 62 61 61 60 60 60 61 61 61 61 61 59 58 57 56 57 57 58 59 59 59 58 59 58 58 57 59 58
65 65 65 65 65 64 64 63 63 63 62 60 60 60 61 61 61 62 61 60 59 60 61 61 62 61 59 58 59 58 57 57 59 59 57 58 57 57 56 57 56 57 57
64 64 64 63 62 61 59 58 58 57 60 60 59 59 58 57 49 54 58 60 60 59 59 59 60 60 58 55 56 56 58 58 58 56 56 57 57 56 57 57 56 56 54
63 62 62 61 60 59 58 58 58 59 60 59 58 58 57 55 48 49 54 59 59 59 59 59 61 60 57 58 53 54 53 53 55 56 56 57 57 57 57 57 56 55 55
61 61 60 58 57 55 58 59 59 61 61 60 59 57 56 54 48 50 54 60 59 58 59 61 60 59 58 59 59 58 57 57 56 57 56 57 58 58 58 57 56 56 57
59 59 58 55 56 58 59 60 60 61 61 58 57 56 57 57 48 50 56 58 57 57 59 61 60 58 48 50 57 56 55 55 51 51 52 50 49 50 54 56 55 55 54
57 55 54 55 58 58 60 59 60 59 60 59 58 56 53 56 47 48 55 58 58 57 56 56 52 54 46 49 57 56 56 56 56 56 54 51 52 52 51 56 56 54 53
56 56 56 57 58 59 59 59 59 60 60 58 57 56 57 57 53 46 50 57 57 57 56 56 54 45 45 47 51 57 55 56 54 57 56 56 56 56 57 57 56 55 53
56 56 57 57 58 58 58 58 60 60 58 58 57 57 58 56 50 47 49 51 53 56 56 55 50 44 44 46 51 45 46 52 57 56 56 55 56 56 56 57 56 56 55
56 57 57 58 58 58 59 59 59 59 58 57 56 55 56 56 53 45 45 46 49 56 56 48 43 42 43 45 43 45 49 56 56 56 55 56 56 56 56 57 57 56 56
56 56 56 58 58 58 59 59 59 59 58 58 56 56 56 56 54 54 53 52 48 49 48 50 49 49 48 49 52 54 56 56 56 56 55 55 55 55 55 55 55 55 55
55 56 57 57 56 53 50 52 58 57 57 59 57 56 57 56 54 52 53 55 55 52 53 55 55 55 54 55 55 55 55 55 55 55 55 55 55 55 54 55 55 55 55
55 57 58 57 57 54 53 50 41 41 44 46 50 54 56 49 45 46 45 44 45 46 54 54 54 54 54 55 55 54 55 54 55 55 55 55 54 54 54 55 55 55 54
57 58 58 58 57 56 56 54 51 48 44 42 44 45 46 45 43 43 42 41 41 47 55 54 54 54 55 56 56 55 54 55 55 55 54 54 54 55 54 55 55 54 53
57 53 58 58 57 56 56 56 56 57 56 52 43 43 41 42 42 41 41 46 53 53 55 54 54 54 54 54 54 53 54 54 54 54 54 55 55 55 55 54 54 54 54
55 57 60 60 58 56 56 56 56 55 54 51 51 45 40 39 40 40 42 55 55 56 55 54 54 54 56 56 55 55 55 55 54 55 55 55 56 55 54 55 54 48 50
56 52 56 59 58 58 57 56 55 55 55 55 55 53 49 50 51 51 52 54 56 56 56 56 56 57 58 58 57 57 56 55 56 56 56 57 56 56 55 55 55 54 53
55 56 53 59 58 58 57 56 56 55 54 54 54 49 38 54 53 53 53 56 57 56 57 58 58 58 58 58 58 57 57 57 57 57 57 56 57 56 56 56 56 55 54
55 57 58 58 59 59 58 57 58 56 55 55 54 50 40 55 55 55 55 51 49 48 50 50 48 48 49 49 49 55 57 57 56 55 57 57 56 56 56 55 54 53 51
56 57 57 58 58 54 58 58 58 57 56 56 55 55 56 55 54 51 49 46 44 43 45 45 44 42 45 46 46 44 50 49 49 52 53 58 58 57 57 56 57 56 56
53 53 52 53 56 58 57 57 57 52 55 54 52 52 51 48 45 43 43 44 42 39 37 39 38 39 40 39 40 40 38 41 47 54 56 55 54 54 54 54 55 54 53
50 51 49 48 49 49 49 49 49 49 48 46 45 45 46 44 42 40 38 36 35 33 33 33 33 34 35 34 34 35 34 34 39 39 46 45 47 47 47 48 47 48 47
45 47 47 46 45 46 47 46 45 44 43 41 40 39 38 37 37 36 36 35 34 35 34 33 32 32 33 32 32 31 32 32 34 34 40 38 37 38 38 38 39 40 40

GFSGL_sfc_dewp_045.txt.gz
Dewpoint
48 52 57 60 61 63 64 64 65 65 65 65 65 65 65 65 65 65 64 63 62 61 59 59 58 58 58 58 57 55 55 54 52 54 57 60 60 61 61 61 61 61 60
56 60 61 63 64 64 64 64 64 64 65 66 66 66 66 65 64 63 62 62 61 59 59 59 59 60 57 57 57 55 55 55 54 53 57 59 59 60 61 61 61 61 61
62 63 64 64 64 64 64 65 65 65 66 66 66 65 65 64 63 62 62 61 60 59 59 59 59 59 58 57 56 55 54 57 56 56 58 60 59 59 59 59 59 59 60
64 65 65 65 65 65 66 66 65 66 65 65 65 64 64 63 63 62 61 59 59 59 59 59 59 59 60 58 56 55 55 57 58 59 58 58 58 58 59 57 57 58 58
65 65 66 66 66 67 66 66 66 65 65 64 63 62 62 62 61 60 59 59 58 59 59 60 60 60 59 58 57 55 56 57 58 57 57 57 57 57 56 57 56 57 57
65 65 65 65 65 66 65 64 64 61 61 61 60 60 59 58 51 54 58 59 59 59 58 59 59 60 58 55 55 55 57 58 58 57 55 57 57 56 57 57 56 56 54
64 64 63 62 61 62 61 60 60 60 59 58 57 57 56 55 47 49 53 59 58 58 58 58 59 60 59 57 53 53 53 52 55 57 56 56 56 57 57 57 56 54 55
63 62 61 60 58 58 58 59 59 59 57 57 56 57 56 54 47 48 52 58 57 57 57 58 58 58 58 58 57 57 56 56 56 57 57 56 57 57 56 56 54 56 57
61 60 59 57 57 58 58 59 59 59 57 56 57 57 57 56 47 47 55 57 56 58 58 59 60 59 49 48 57 56 54 54 50 50 51 49 48 50 54 56 55 56 54
60 59 57 57 58 58 59 59 59 59 58 57 56 57 54 56 45 47 54 56 57 57 57 56 50 54 46 48 57 57 55 55 55 55 55 51 51 52 51 56 56 55 53
58 56 56 57 58 59 59 60 60 59 57 56 56 56 57 54 51 46 49 57 57 55 56 55 52 44 43 45 50 56 55 55 53 56 56 56 56 56 57 57 57 55 53
55 55 56 57 58 59 59 60 59 57 56 55 56 57 57 56 49 46 47 51 52 56 55 54 50 44 44 46 51 43 46 52 57 56 56 55 56 56 56 57 56 56 55
56 56 56 58 59 59 59 59 58 57 57 56 55 56 56 56 52 44 44 46 49 55 56 49 43 42 43 45 43 44 49 57 56 55 55 55 56 56 56 56 57 56 57
56 57 58 58 59 59 60 59 58 57 56 56 56 56 56 55 55 54 53 52 48 49 48 49 48 47 48 48 52 54 57 57 56 56 55 56 56 56 56 56 55 55 55
56 57 57 57 57 52 48 52 58 55 56 57 56 56 56 55 55 52 53 55 55 51 53 55 55 55 55 55 55 55 56 56 55 55 55 55 55 55 55 55 55 55 54
56 57 56 55 55 53 52 50 41 43 45 47 49 53 55 47 44 44 43 43 44 45 55 55 54 54 55 55 54 55 55 54 55 55 55 56 55 54 54 55 55 54 53
57 56 56 55 55 54 54 54 52 47 42 42 42 43 46 45 42 41 42 41 43 49 55 55 54 55 55 55 55 55 55 55 55 55 55 55 55 55 53 54 55 54 54
57 51 57 57 56 56 55 55 56 57 55 52 42 43 41 41 40 40 42 48 54 53 55 54 54 53 55 55 54 54 55 55 55 55 55 55 55 55 55 54 54 53 52
58 58 58 57 56 55 56 57 57 57 55 51 49 45 41 39 39 41 44 55 55 54 54 54 55 55 54 54 54 55 55 55 54 54 54 55 55 55 55 53 52 46 47
58 50 54 57 56 56 56 55 55 55 55 55 54 51 49 51 52 52 54 55 56 56 56 55 55 55 56 56 56 56 55 54 55 55 55 55 56 55 53 53 53 53 53
58 57 51 58 57 56 55 56 56 56 55 54 52 50 41 53 53 54 55 52 51 52 56 57 57 57 58 57 57 57 56 57 56 56 56 56 56 56 56 56 55 55 55
58 58 58 58 57 57 56 56 56 55 55 54 53 47 37 54 54 50 47 45 45 46 47 47 46 47 47 46 47 53 57 56 56 56 56 57 57 56 56 56 56 56 55
58 59 59 59 57 52 56 56 56 55 55 55 55 54 54 50 48 45 43 41 41 42 42 42 42 44 44 44 44 43 48 48 50 52 54 56 56 57 57 56 56 56 55
56 56 58 58 58 57 57 56 55 50 54 53 51 48 46 43 42 40 38 37 37 37 37 37 36 36 36 37 39 41 42 44 51 53 55 55 55 53 55 53 52 51 51
51 53 54 54 54 53 54 55 50 47 46 46 45 43 41 39 36 35 35 35 34 33 33 33 33 34 33 32 32 33 32 33 36 37 43 44 42 41 42 43 42 42 42
48 48 48 49 50 49 48 46 45 43 41 39 38 37 37 36 35 34 33 32 32 32 31 31 31 31 30 30 30 31 31 31 33 33 37 38 37 37 37 37 37 37 39

GFSGL_sfc_dewp_048.txt.gz
Dewpoint
52 48 54 56 58 59 60 61 63 64 65 66 66 66 66 66 66 66 65 64 63 63 62 61 61 61 60 60 59 59 59 58 57 58 60 62 61 62 62 62 62 62 62
55 49 52 57 59 60 61 63 64 65 66 66 66 66 66 66 65 65 64 63 63 62 61 61 60 61 61 60 60 59 59 59 58 57 59 60 60 61 62 61 61 62 61
56 53 56 59 61 61 63 64 65 65 66 66 66 66 66 65 65 64 64 63 62 62 61 61 60 61 60 60 59 59 59 59 59 58 58 60 60 60 59 59 61 61 61
59 59 60 62 62 63 64 65 65 66 66 66 66 66 65 64 64 64 63 63 62 61 61 61 61 61 61 60 59 58 59 59 60 59 59 58 58 59 59 58 58 59 59
62 63 63 64 64 65 65 65 66 66 66 66 65 65 64 64 63 63 62 61 61 61 61 61 62 61 59 59 59 58 59 60 59 58 57 57 57 57 57 58 58 58 59
64 64 64 65 65 65 65 65 65 64 64 64 64 64 63 61 51 53 59 61 60 61 61 61 62 59 57 55 54 54 59 60 58 58 58 57 57 57 58 57 57 56 56
64 64 65 65 64 65 65 64 63 62 63 62 61 61 59 56 48 49 52 61 61 61 61 61 61 61 59 59 52 52 53 53 56 59 58 58 57 57 58 57 57 57 57
64 64 64 64 64 64 63 62 61 61 60 59 58 58 57 53 46 47 50 60 60 60 60 60 61 60 60 59 58 58 58 59 59 58 60 60 59 59 59 58 58 57 57
62 62 61 61 61 61 61 60 60 58 58 57 57 58 57 56 46 46 55 59 59 59 59 60 60 59 49 50 58 57 57 56 51 51 52 50 48 50 55 58 57 54 54
61 60 60 60 61 61 60 59 58 58 57 58 57 58 54 56 45 46 55 58 58 59 60 58 51 55 44 47 59 58 56 56 56 57 56 52 52 52 51 60 57 55 55
60 59 60 60 60 60 60 58 58 57 57 56 56 57 57 55 51 46 49 59 58 58 58 57 54 44 44 46 51 59 56 56 54 57 56 57 56 57 58 59 59 57 55
59 59 60 60 59 60 59 58 57 57 57 56 57 57 57 56 49 46 47 51 53 57 57 56 50 42 43 44 51 43 46 52 57 57 56 56 56 57 57 58 59 57 57
59 59 58 58 59 60 59 58 57 57 56 56 55 56 56 56 52 43 43 45 49 56 56 49 43 42 42 44 43 44 48 57 57 56 56 56 57 57 57 57 58 58 58
58 57 58 58 59 60 59 59 57 57 56 56 56 57 56 56 55 55 53 52 47 49 49 51 48 47 47 48 53 55 57 57 57 56 56 56 57 56 56 57 56 56 56
57 57 58 58 57 51 48 55 57 57 57 56 56 56 56 56 55 52 53 55 55 51 54 56 55 55 55 55 56 56 57 57 56 56 56 56 56 56 56 57 56 56 55
57 57 57 56 55 54 53 52 41 44 46 47 49 54 54 48 44 43 43 43 44 46 55 55 55 55 55 55 55 55 56 55 56 56 56 56 55 55 55 55 55 55 54
56 56 55 55 55 54 55 55 52 46 41 41 41 42 45 42 41 41 42 42 43 49 55 55 55 55 55 55 55 55 55 56 56 56 56 56 55 55 54 55 55 55 54
56 50 55 56 56 56 56 55 56 56 54 51 41 42 40 40 41 41 43 48 54 53 55 55 54 55 55 55 55 55 55 55 56 56 56 56 55 55 54 55 55 54 54
57 57 57 57 57 55 57 56 57 56 54 49 49 45 41 40 41 44 45 55 55 54 55 55 55 55 56 56 55 55 55 55 55 55 55 55 55 55 56 55 54 47 49
57 49 53 57 56 57 57 56 56 54 54 53 51 49 50 52 53 54 55 56 56 55 55 55 55 55 55 56 56 55 55 55 55 55 55 55 56 55 55 55 55 53 53
57 57 51 56 55 56 56 56 55 55 54 52 52 50 41 54 53 50 49 48 49 50 51 53 52 53 54 57 57 56 55 56 55 55 56 56 56 56 56 56 55 55 55
58 58 57 56 55 56 57 56 56 55 53 53 52 46 39 50 47 45 44 45 44 44 46 47 46 46 46 46 48 52 57 57 57 57 57 57 57 57 57 57 57 57 56
58 58 57 56 56 52 56 56 55 54 54 53 53 51 48 46 43 41 41 40 40 40 41 41 41 41 43 44 45 46 50 51 52 55 57 57 57 57 58 57 57 56 54
58 58 57 56 55 55 56 56 55 51 54 51 48 45 43 40 39 38 37 37 37 37 37 36 35 36 37 37 38 39 39 43 48 50 53 54 52 50 50 48 48 47 48
58 57 57 56 55 55 53 51 50 48 46 44 42 39 38 37 36 35 36 34 34 32 32 32 32 32 32 33 33 33 32 33 38 37 42 43 41 42 42 39 40 39 37
52 53 54 53 52 50 48 46 44 42 41 40 39 37 36 35 34 34 34 34 31 30 30 30 29 29 29 30 30 30 30 31 33 33 37 37 37 37 37 37 36 34 32